Showing default

SNUSAT-2, 43782

Orbit data source: Space-Track

SNUSAT-2, 43782 is a payload satellite owned by SNU (KR) in SSO that was launched on Mon, 03 Dec 2018 UTC via an FALCON 9 launch vehicle from the Air Force Western Test Range (AFWTR). Payload-class satellites include a variety of spacecraft equipped with specific instruments for various scientific and technological missions. These include communications satellites like Starlink; space stations such as the ISS; scientific satellites like the Hubble; Earth observation satellites from companies like Planet Labs, Umbra, and HawkEye 360; GPS; miniature CubeSats for education and research; and military/defense satellites.

Loading next visibility...
Identifier
43782, 2018-099AA
Orbit
SSO
Country
Flag of UnknownUnknown / SKOR
Related business
Manufacturer
SNU
Mission
Operational Amateur Technology
Bus & Motor
CUBESAT 3U, Unknown motor
Mass
4 kg wet, 4 kg dry
Launch date (UTC)
2018-12-03 (7 years ago)
Launch vehicle
FALCON 9
Launch site
Air Force Western Test Range (AFWTR)
Object type
Payload
Rocket body
Debris
Shape & HBR
Box, 0.1 m
Radar Cross Section
0.035 m², Small (<0.1 m²)

Expand to show TLE details & history
Last TLE update: 9 hours ago

TLE from 9 hours ago
0 SNUSAT-2
1 43782U 18099AA  25258.60715719  .00007963  00000-0  41738-3 0  9990
2 43782  97.4504 311.5973 0012294 166.8592 193.2964 15.15981959371344
Epoch: 2025-09-15T14:34Z
TLE epoch observation values (Epoch: 2025-09-15T14:34:18.381Z)
Latitude
0.00004°
Longitude
98.21132°
Altitude
529.336 km
Speed
7.594 km/s
True Right ascension
20h 46m 23s
True Declination
0° 00' 00"
Sunlit
Object was in full shadow at epoch
Visualization orbit readout
Latitude
Unknown
Longitude
Unknown
Altitude
Unknown
Speed
Unknown
Apparent Right ascension
Unknown
Apparent Declination
Unknown
Sunlit
N/A
Visualization observer readout
Local Sidereal Time
16:27:15
Azimuth
Unknown
Elevation
Unknown
Doppler factor
Unknown
Orbital elements
Apogee altitude
523.447 km
Perigee altitude
506.498 km
Semi-major axis
6,893.109 km
Eccentricity
0.00123
Inclination
97.4504°
RAAN
311.5973°
Arg. of periapsis
166.8592°
True anomaly
193.26405°
Mean anomaly
193.2964°
Eccentric anomaly
193.28022°
Mean motion
3.79246 °/min
Orbital period
94.93 mins
BSTAR
0.00041738
Loading maneuver chart data...
Computing Atmospheric mass density...
Loading historical data...
Loading historical data...
Loading historical data...
Loading historical data...
Loading historical data...
Loading historical data...
Loading historical data...

Documentation

Showing up to 5 results
|